This is the latest recevied weather packets stored in our database for station/object KD9NSC. If no packets are shown the sender has not sent any weather packets the latest 10 day(s).
| Time | Temp. | Humidity | Pressure | Rain* | Wind** | Luminosity | Snow |
|---|---|---|---|---|---|---|---|
| 1777402006 | 17.22° C | 66% | 1015.9 hPa | 0 mm | - | 29 W/m² | - |
| 1777401705 | 17.22° C | 66% | 1015.8 hPa | 0 mm | - | 32 W/m² | - |
| 1777401402 | 17.22° C | 68% | 1015.8 hPa | 0 mm | - | 27 W/m² | - |
| 1777401097 | 16.67° C | 67% | 1015.9 hPa | 0 mm | - | 168 W/m² | - |
| 1777400793 | 16.67° C | 65% | 1016 hPa | 0 mm | - | 172 W/m² | - |
| 1777400490 | 17.22° C | 68% | 1016.1 hPa | 0 mm | - | 308 W/m² | - |
| 1777400186 | 16.67° C | 70% | 1015.8 hPa | 0 mm | - | 71 W/m² | - |
| 1777399883 | 16.67° C | 66% | 1015.9 hPa | 0 mm | - | 134 W/m² | - |
| 1777399580 | 16.67° C | 67% | 1016 hPa | 0 mm | - | 78 W/m² | - |
| 1777399277 | 16.67° C | 69% | 1015.9 hPa | 0 mm | - | 48 W/m² | - |
| 1777398975 | 16.11° C | 71% | 1015.7 hPa | 0 mm | - | 32 W/m² | - |
| 1777398672 | 16.67° C | 69% | 1015.6 hPa | 0 mm | - | 367 W/m² | - |
| 1777398369 | 16.67° C | 69% | 1015.7 hPa | 0 mm | - | 45 W/m² | - |
| 1777398065 | 17.22° C | 67% | 1015.9 hPa | 0 mm | - | 124 W/m² | - |
| 1777397762 | 17.22° C | 71% | 1015.8 hPa | 0 mm | - | 108 W/m² | - |
| 1777397457 | 17.22° C | 66% | 1015.5 hPa | 0 mm | - | 32 W/m² | - |
| 1777397154 | 17.22° C | 68% | 1015.6 hPa | 0 mm | - | 90 W/m² | - |
| 1777396851 | 17.22° C | 67% | 1015.7 hPa | 0 mm | - | 413 W/m² | - |
| 1777396547 | 17.78° C | 69% | 1015.7 hPa | 0 mm | - | 313 W/m² | - |
| 1777396244 | 17.22° C | 69% | 1015.5 hPa | 0 mm | - | 214 W/m² | - |
| 1777395939 | 17.22° C | 67% | 1015.5 hPa | 0 mm | - | 247 W/m² | - |
| 1777395635 | 17.22° C | 66% | 1015.2 hPa | 0 mm | - | 349 W/m² | - |
| 1777395332 | 17.22° C | 65% | 1015.2 hPa | 0 mm | - | 328 W/m² | - |
| 1777395030 | 17.22° C | 69% | 1015.6 hPa | 0 mm | - | 189 W/m² | - |
| 1777394726 | 17.78° C | 68% | 1015.8 hPa | 0 mm | - | 307 W/m² | - |
* Rain latest hour (hover to see other rain measurements)
** Current wind speed in m/s (hover to see current wind gust speed)